Time,TemperatureF,DewpointF,PressureIn,WindDirection,WindDirectionDegrees,WindSpeedMPH,WindSpeedGustMPH,Humidity,HourlyPrecipIn,Conditions,Clouds,dailyrainin,SoftwareType,DateUTC
2013-01-07 00:02:00,65.0,64.0,30.10,NE,42,0.0,-999.0,97,-99.99,,,-99.99,,2013-01-07 10:02:00,
2013-01-07 00:11:00,65.0,64.0,30.10,NE,42,0.0,-999.0,97,-99.99,,,-99.99,,2013-01-07 10:11:00,
2013-01-07 00:22:00,65.0,64.0,30.10,NE,42,0.0,-999.0,97,-99.99,,,-99.99,,2013-01-07 10:22:00,
2013-01-07 00:32:00,65.0,64.0,30.10,NE,42,0.0,-999.0,97,-99.99,,,-99.99,,2013-01-07 10:32:00,
2013-01-07 00:42:00,65.0,64.0,30.10,NE,42,0.0,-999.0,97,-99.99,,,-99.99,,2013-01-07 10:42:00,
2013-01-07 00:52:00,65.0,64.0,30.09,NE,42,0.0,-999.0,97,-99.99,,,-99.99,,2013-01-07 10:52:00,
2013-01-07 01:02:00,65.0,64.0,30.09,NE,42,0.0,-999.0,97,-99.99,,,-99.99,,2013-01-07 11:02:00,
2013-01-07 01:12:00,65.0,64.0,30.09,NE,42,0.0,-999.0,97,-99.99,,,-99.99,,2013-01-07 11:12:00,
2013-01-07 01:22:00,65.0,64.0,30.09,NE,41,0.0,-999.0,97,-99.99,,,-99.99,,2013-01-07 11:22:00,
2013-01-07 01:32:00,65.0,64.0,30.09,NE,41,0.0,-999.0,98,-99.99,,,-99.99,,2013-01-07 11:32:00,
2013-01-07 01:42:00,65.0,64.0,30.09,NE,41,0.0,-999.0,98,-99.99,,,-99.99,,2013-01-07 11:42:00,
2013-01-07 01:52:00,65.0,64.0,30.08,NE,41,0.0,-999.0,98,-99.99,,,-99.99,,2013-01-07 11:52:00,
2013-01-07 02:02:00,65.0,64.0,30.08,NE,41,0.0,-999.0,98,-99.99,,,-99.99,,2013-01-07 12:02:00,
2013-01-07 02:12:00,65.0,64.0,30.07,NE,41,0.0,-999.0,98,-99.99,,,-99.99,,2013-01-07 12:12:00,
2013-01-07 02:22:00,65.0,64.0,30.07,NE,41,0.0,-999.0,98,-99.99,,,-99.99,,2013-01-07 12:22:00,
2013-01-07 02:32:00,65.0,64.0,30.06,NE,41,0.0,-999.0,98,-99.99,,,-99.99,,2013-01-07 12:32:00,
2013-01-07 02:42:00,65.0,64.0,30.06,NE,41,0.0,-999.0,98,-99.99,,,-99.99,,2013-01-07 12:42:00,
2013-01-07 02:52:00,65.0,64.0,30.07,NE,40,0.0,-999.0,98,-99.99,,,-99.99,,2013-01-07 12:52:00,
2013-01-07 03:02:00,65.0,64.0,30.07,NE,40,0.0,-999.0,98,-99.99,,,-99.99,,2013-01-07 13:02:00,
2013-01-07 03:12:00,65.0,64.0,30.07,NE,40,0.0,-999.0,98,-99.99,,,-99.99,,2013-01-07 13:12:00,
2013-01-07 03:22:00,65.0,64.0,30.06,West,273,0.0,-999.0,98,-99.99,,,-99.99,,2013-01-07 13:22:00,
2013-01-07 03:32:00,65.0,64.0,30.05,West,273,0.0,-999.0,98,-99.99,,,-99.99,,2013-01-07 13:32:00,
2013-01-07 03:42:00,65.0,64.0,30.05,West,273,0.0,-999.0,98,-99.99,,,-99.99,,2013-01-07 13:42:00,
2013-01-07 03:52:00,64.0,63.0,30.05,West,273,0.0,-999.0,98,-99.99,,,-99.99,,2013-01-07 13:52:00,
2013-01-07 04:03:00,64.0,63.0,30.05,West,275,0.0,-999.0,98,-99.99,,,-99.99,,2013-01-07 14:03:00,
2013-01-07 04:12:00,64.0,63.0,30.05,West,275,0.0,-999.0,98,-99.99,,,-99.99,,2013-01-07 14:12:00,
2013-01-07 04:22:00,64.0,63.0,30.05,West,275,0.0,-999.0,98,-99.99,,,-99.99,,2013-01-07 14:22:00,
2013-01-07 04:32:00,64.0,63.0,30.04,West,275,0.0,-999.0,98,-99.99,,,-99.99,,2013-01-07 14:32:00,
2013-01-07 04:42:00,64.0,63.0,30.04,West,275,0.0,-999.0,98,-99.99,,,-99.99,,2013-01-07 14:42:00,
2013-01-07 04:53:00,64.0,63.0,30.06,West,276,0.0,-999.0,98,-99.99,,,-99.99,,2013-01-07 14:53:00,
2013-01-07 05:02:00,64.0,63.0,30.05,West,276,0.0,-999.0,98,-99.99,,,-99.99,,2013-01-07 15:02:00,
2013-01-07 05:12:00,64.0,63.0,30.05,West,276,0.0,-999.0,98,-99.99,,,-99.99,,2013-01-07 15:12:00,
2013-01-07 05:22:00,65.0,64.0,30.06,West,277,0.0,-999.0,98,-99.99,,,-99.99,,2013-01-07 15:22:00,
2013-01-07 05:33:00,64.0,63.0,30.06,ENE,59,0.0,-999.0,98,-99.99,,,-99.99,,2013-01-07 15:33:00,
2013-01-07 05:42:00,64.0,63.0,30.06,ENE,59,0.0,-999.0,98,-99.99,,,-99.99,,2013-01-07 15:42:00,
2013-01-07 05:52:00,64.0,63.0,30.05,ENE,58,0.0,-999.0,98,-99.99,,,-99.99,,2013-01-07 15:52:00,
2013-01-07 06:02:00,64.0,63.0,30.05,ENE,58,0.0,-999.0,98,-99.99,,,-99.99,,2013-01-07 16:02:00,
2013-01-07 06:12:00,64.0,63.0,30.05,ENE,58,0.0,-999.0,98,-99.99,,,-99.99,,2013-01-07 16:12:00,
2013-01-07 06:22:00,64.0,63.0,30.06,ENE,59,0.0,-999.0,98,-99.99,,,-99.99,,2013-01-07 16:22:00,
2013-01-07 06:33:00,64.0,63.0,30.06,ENE,59,0.0,-999.0,98,-99.99,,,-99.99,,2013-01-07 16:33:00,
2013-01-07 06:42:00,64.0,63.0,30.06,ENE,59,0.0,-999.0,98,-99.99,,,-99.99,,2013-01-07 16:42:00,
2013-01-07 06:52:00,64.0,63.0,30.07,ENE,59,0.0,-999.0,98,-99.99,,,-99.99,,2013-01-07 16:52:00,
2013-01-07 07:02:00,64.0,63.0,30.07,ENE,59,0.0,-999.0,98,-99.99,,,-99.99,,2013-01-07 17:02:00,
2013-01-07 07:12:00,64.0,63.0,30.07,ENE,59,0.0,-999.0,98,-99.99,,,-99.99,,2013-01-07 17:12:00,
2013-01-07 07:22:00,64.0,63.0,30.08,ENE,59,0.0,-999.0,98,-99.99,,,-99.99,,2013-01-07 17:22:00,
2013-01-07 07:32:00,64.0,63.0,30.09,ENE,59,0.0,-999.0,98,-99.99,,,-99.99,,2013-01-07 17:32:00,
2013-01-07 07:42:00,64.0,63.0,30.09,ENE,59,0.0,-999.0,98,-99.99,,,-99.99,,2013-01-07 17:42:00,
2013-01-07 07:52:00,65.0,64.0,30.10,ENE,59,0.0,-999.0,98,-99.99,,,-99.99,,2013-01-07 17:52:00,
2013-01-07 08:02:00,65.0,64.0,30.10,ENE,59,0.0,-999.0,98,-99.99,,,-99.99,,2013-01-07 18:02:00,
2013-01-07 08:12:00,65.0,64.0,30.10,ENE,59,0.0,-999.0,98,-99.99,,,-99.99,,2013-01-07 18:12:00,
2013-01-07 08:23:00,65.0,64.0,30.10,SSE,155,0.0,-999.0,98,-99.99,,,-99.99,,2013-01-07 18:23:00,
2013-01-07 08:32:00,65.0,64.0,30.11,SSE,155,0.0,-999.0,98,-99.99,,,-99.99,,2013-01-07 18:32:00,
2013-01-07 08:42:00,65.0,64.0,30.11,SSE,155,0.0,-999.0,98,-99.99,,,-99.99,,2013-01-07 18:42:00,
2013-01-07 08:52:00,67.0,66.0,30.11,SSE,155,0.0,-999.0,98,-99.99,,,-99.99,,2013-01-07 18:52:00,
2013-01-07 09:03:00,68.0,67.0,30.11,SSE,155,0.0,-999.0,98,-99.99,,,-99.99,,2013-01-07 19:03:00,
2013-01-07 09:12:00,68.0,67.0,30.11,SSE,155,0.0,-999.0,98,-99.99,,,-99.99,,2013-01-07 19:12:00,
2013-01-07 09:22:00,68.0,67.0,30.11,SSE,155,0.0,-999.0,98,-99.99,,,-99.99,,2013-01-07 19:22:00,
2013-01-07 09:33:00,69.0,68.0,30.11,SSW,197,0.0,-999.0,98,-99.99,,,-99.99,,2013-01-07 19:33:00,
2013-01-07 09:42:00,69.0,68.0,30.11,SSW,197,0.0,-999.0,98,-99.99,,,-99.99,,2013-01-07 19:42:00,
2013-01-07 09:52:00,70.0,69.0,30.11,West,261,0.0,-999.0,98,-99.99,,,-99.99,,2013-01-07 19:52:00,
2013-01-07 10:02:00,70.0,68.0,30.11,West,272,0.0,-999.0,95,-99.99,,,-99.99,,2013-01-07 20:02:00,
2013-01-07 10:12:00,70.0,68.0,30.11,West,272,0.0,-999.0,95,-99.99,,,-99.99,,2013-01-07 20:12:00,
2013-01-07 10:22:00,71.0,69.0,30.11,NE,51,0.0,-999.0,92,-99.99,,,-99.99,,2013-01-07 20:22:00,
2013-01-07 10:33:00,72.0,67.0,30.10,NE,48,1.0,-999.0,85,-99.99,,,-99.99,,2013-01-07 20:33:00,
2013-01-07 10:42:00,72.0,67.0,30.10,NE,48,1.0,-999.0,85,-99.99,,,-99.99,,2013-01-07 20:42:00,
2013-01-07 10:52:00,72.0,67.0,30.10,ENE,71,0.0,-999.0,85,-99.99,,,-99.99,,2013-01-07 20:52:00,
2013-01-07 11:02:00,72.0,67.0,30.09,NE,46,0.0,-999.0,85,-99.99,,,-99.99,,2013-01-07 21:02:00,
2013-01-07 11:12:00,72.0,67.0,30.09,NE,46,0.0,-999.0,85,-99.99,,,-99.99,,2013-01-07 21:12:00,
2013-01-07 11:22:00,72.0,67.0,30.09,NE,46,0.0,-999.0,85,-99.99,,,-99.99,,2013-01-07 21:22:00,
2013-01-07 11:32:00,73.0,66.0,30.09,North,5,1.0,-999.0,79,-99.99,,,-99.99,,2013-01-07 21:32:00,
2013-01-07 11:42:00,73.0,66.0,30.09,North,5,1.0,-999.0,79,-99.99,,,-99.99,,2013-01-07 21:42:00,
2013-01-07 11:53:00,72.0,65.0,30.08,North,5,1.0,-999.0,80,-99.99,,,-99.99,,2013-01-07 21:53:00,
2013-01-07 12:02:00,74.0,65.0,30.07,NNE,20,1.0,-999.0,74,-99.99,,,-99.99,,2013-01-07 22:02:00,
2013-01-07 12:12:00,74.0,65.0,30.07,NNE,20,1.0,-999.0,74,-99.99,,,-99.99,,2013-01-07 22:12:00,
2013-01-07 12:22:00,74.0,65.0,30.07,NNE,20,1.0,-999.0,74,-99.99,,,-99.99,,2013-01-07 22:22:00,
2013-01-07 12:33:00,75.0,67.0,30.05,ENE,70,2.0,-999.0,75,-99.99,,,-99.99,,2013-01-07 22:33:00,
2013-01-07 12:42:00,75.0,67.0,30.05,ENE,70,2.0,-999.0,75,-99.99,,,-99.99,,2013-01-07 22:42:00,
2013-01-07 12:53:00,75.0,67.0,30.05,ENE,70,2.0,-999.0,75,-99.99,,,-99.99,,2013-01-07 22:53:00,
2013-01-07 13:02:00,73.0,65.0,30.03,North,360,2.0,-999.0,77,-99.99,,,-99.99,,2013-01-07 23:02:00,
2013-01-07 13:11:00,73.0,65.0,30.03,North,360,2.0,-999.0,77,-99.99,,,-99.99,,2013-01-07 23:11:00,
2013-01-07 13:22:00,74.0,66.0,30.02,North,360,2.0,-999.0,77,-99.99,,,-99.99,,2013-01-07 23:22:00,
2013-01-07 13:32:00,75.0,67.0,30.01,NE,38,3.0,-999.0,76,-99.99,,,-99.99,,2013-01-07 23:32:00,
2013-01-07 13:42:00,75.0,67.0,30.01,NE,38,3.0,-999.0,76,-99.99,,,-99.99,,2013-01-07 23:42:00,
2013-01-07 13:52:00,75.0,67.0,30.00,NE,39,3.0,-999.0,75,-99.99,,,-99.99,,2013-01-07 23:52:00,
2013-01-07 14:02:00,74.0,66.0,30.00,NE,38,2.0,-999.0,77,-99.99,,,-99.99,,2013-01-08 00:02:00,
2013-01-07 14:12:00,74.0,66.0,30.00,NE,38,2.0,-999.0,77,-99.99,,,-99.99,,2013-01-08 00:12:00,
2013-01-07 14:22:00,72.0,65.0,30.00,NNE,19,4.0,-999.0,79,-99.99,,,-99.99,,2013-01-08 00:22:00,
2013-01-07 14:32:00,74.0,66.0,30.00,NE,43,4.0,-999.0,76,-99.99,,,-99.99,,2013-01-08 00:32:00,
2013-01-07 14:42:00,74.0,66.0,30.00,NE,43,4.0,-999.0,76,-99.99,,,-99.99,,2013-01-08 00:42:00,
2013-01-07 14:52:00,74.0,66.0,30.00,NE,43,4.0,-999.0,76,-99.99,,,-99.99,,2013-01-08 00:52:00,
2013-01-07 15:02:00,72.0,65.0,30.00,North,360,2.0,-999.0,80,-99.99,,,-99.99,,2013-01-08 01:02:00,
2013-01-07 15:11:00,72.0,65.0,30.00,North,360,2.0,-999.0,80,-99.99,,,-99.99,,2013-01-08 01:11:00,
2013-01-07 15:22:00,72.0,65.0,30.00,North,360,2.0,-999.0,80,-99.99,,,-99.99,,2013-01-08 01:22:00,
2013-01-07 15:32:00,72.0,64.0,30.00,NNE,22,3.0,-999.0,77,-99.99,,,-99.99,,2013-01-08 01:32:00,
2013-01-07 15:42:00,72.0,64.0,30.00,NNE,22,3.0,-999.0,77,-99.99,,,-99.99,,2013-01-08 01:42:00,
2013-01-07 15:52:00,72.0,65.0,30.00,NNE,17,3.0,-999.0,78,-99.99,,,-99.99,,2013-01-08 01:52:00,
2013-01-07 16:02:00,73.0,65.0,30.00,North,9,3.0,-999.0,75,-99.99,,,-99.99,,2013-01-08 02:02:00,
2013-01-07 16:12:00,73.0,65.0,30.00,North,9,3.0,-999.0,75,-99.99,,,-99.99,,2013-01-08 02:12:00,
2013-01-07 16:22:00,73.0,66.0,29.99,NNE,13,2.0,-999.0,78,-99.99,,,-99.99,,2013-01-08 02:22:00,
2013-01-07 16:32:00,72.0,64.0,30.00,ENE,59,3.0,-999.0,77,-99.99,,,-99.99,,2013-01-08 02:32:00,
2013-01-07 16:42:00,72.0,64.0,30.00,ENE,59,3.0,-999.0,77,-99.99,,,-99.99,,2013-01-08 02:42:00,
2013-01-07 16:52:00,71.0,64.0,30.00,North,5,1.0,-999.0,78,-99.99,,,-99.99,,2013-01-08 02:52:00,
2013-01-07 17:02:00,71.0,65.0,30.01,ENE,59,1.0,-999.0,80,-99.99,,,-99.99,,2013-01-08 03:02:00,
2013-01-07 17:12:00,71.0,65.0,30.01,ENE,59,1.0,-999.0,80,-99.99,,,-99.99,,2013-01-08 03:12:00,
2013-01-07 17:22:00,71.0,65.0,30.01,NNE,22,1.0,-999.0,81,-99.99,,,-99.99,,2013-01-08 03:22:00,
2013-01-07 17:32:00,70.0,64.0,30.02,NNE,28,2.0,-999.0,82,-99.99,,,-99.99,,2013-01-08 03:32:00,
2013-01-07 17:42:00,70.0,64.0,30.02,NNE,28,2.0,-999.0,82,-99.99,,,-99.99,,2013-01-08 03:42:00,
2013-01-07 17:52:00,70.0,65.0,30.03,NNE,24,0.0,-999.0,83,-99.99,,,-99.99,,2013-01-08 03:52:00,
2013-01-07 18:02:00,70.0,65.0,30.03,NNE,14,0.0,-999.0,84,-99.99,,,-99.99,,2013-01-08 04:02:00,
2013-01-07 18:11:00,70.0,65.0,30.03,NNE,14,0.0,-999.0,84,-99.99,,,-99.99,,2013-01-08 04:11:00,
2013-01-07 18:22:00,69.0,64.0,30.03,NE,34,0.0,-999.0,85,-99.99,,,-99.99,,2013-01-08 04:22:00,
2013-01-07 18:32:00,69.0,65.0,30.04,North,360,0.0,-999.0,86,-99.99,,,-99.99,,2013-01-08 04:32:00,
2013-01-07 18:42:00,69.0,65.0,30.04,North,360,0.0,-999.0,86,-99.99,,,-99.99,,2013-01-08 04:42:00,
2013-01-07 18:52:00,69.0,65.0,30.04,NNW,338,0.0,-999.0,87,-99.99,,,-99.99,,2013-01-08 04:52:00,
2013-01-07 19:03:00,68.0,64.0,30.04,NE,42,0.0,-999.0,86,-99.99,,,-99.99,,2013-01-08 05:03:00,
2013-01-07 19:12:00,68.0,64.0,30.04,NE,42,0.0,-999.0,86,-99.99,,,-99.99,,2013-01-08 05:12:00,
2013-01-07 19:22:00,68.0,64.0,30.05,North,11,0.0,-999.0,87,-99.99,,,-99.99,,2013-01-08 05:22:00,
2013-01-07 19:33:00,68.0,64.0,30.05,North,11,0.0,-999.0,87,-99.99,,,-99.99,,2013-01-08 05:33:00,
2013-01-07 19:42:00,68.0,64.0,30.05,North,11,0.0,-999.0,87,-99.99,,,-99.99,,2013-01-08 05:42:00,
2013-01-07 19:52:00,66.0,64.0,30.06,North,11,0.0,-999.0,92,-99.99,,,-99.99,,2013-01-08 05:52:00,
2013-01-07 20:02:00,65.0,63.0,30.06,North,11,0.0,-999.0,93,-99.99,,,-99.99,,2013-01-08 06:02:00,
2013-01-07 20:12:00,65.0,63.0,30.06,North,11,0.0,-999.0,93,-99.99,,,-99.99,,2013-01-08 06:12:00,
2013-01-07 20:22:00,65.0,63.0,30.06,North,11,0.0,-999.0,94,-99.99,,,-99.99,,2013-01-08 06:22:00,
2013-01-07 20:32:00,66.0,65.0,30.06,North,11,0.0,-999.0,95,-99.99,,,-99.99,,2013-01-08 06:32:00,
2013-01-07 20:42:00,66.0,65.0,30.06,North,11,0.0,-999.0,95,-99.99,,,-99.99,,2013-01-08 06:42:00,
2013-01-07 20:52:00,65.0,64.0,30.06,North,11,0.0,-999.0,95,-99.99,,,-99.99,,2013-01-08 06:52:00,
2013-01-07 21:02:00,65.0,64.0,30.07,North,11,0.0,-999.0,95,-99.99,,,-99.99,,2013-01-08 07:02:00,
2013-01-07 21:11:00,65.0,64.0,30.07,North,11,0.0,-999.0,95,-99.99,,,-99.99,,2013-01-08 07:11:00,
2013-01-07 21:22:00,65.0,64.0,30.07,North,11,0.0,-999.0,95,-99.99,,,-99.99,,2013-01-08 07:22:00,
2013-01-07 21:32:00,64.0,63.0,30.07,North,11,0.0,-999.0,95,-99.99,,,-99.99,,2013-01-08 07:32:00,
2013-01-07 21:42:00,64.0,63.0,30.07,North,11,0.0,-999.0,95,-99.99,,,-99.99,,2013-01-08 07:42:00,
2013-01-07 21:52:00,64.0,63.0,30.07,North,11,0.0,-999.0,96,-99.99,,,-99.99,,2013-01-08 07:52:00,
2013-01-07 22:02:00,64.0,63.0,30.07,North,11,0.0,-999.0,96,-99.99,,,-99.99,,2013-01-08 08:02:00,
2013-01-07 22:11:00,64.0,63.0,30.07,North,11,0.0,-999.0,96,-99.99,,,-99.99,,2013-01-08 08:11:00,
2013-01-07 22:22:00,64.0,63.0,30.07,North,11,0.0,-999.0,96,-99.99,,,-99.99,,2013-01-08 08:22:00,
2013-01-07 22:32:00,64.0,63.0,30.06,North,11,0.0,-999.0,96,-99.99,,,-99.99,,2013-01-08 08:32:00,
2013-01-07 22:42:00,64.0,63.0,30.06,North,11,0.0,-999.0,96,-99.99,,,-99.99,,2013-01-08 08:42:00,
2013-01-07 22:52:00,64.0,63.0,30.06,North,11,0.0,-999.0,96,-99.99,,,-99.99,,2013-01-08 08:52:00,
2013-01-07 23:02:00,63.0,62.0,30.06,North,11,0.0,-999.0,96,-99.99,,,-99.99,,2013-01-08 09:02:00,
2013-01-07 23:11:00,63.0,62.0,30.06,North,11,0.0,-999.0,96,-99.99,,,-99.99,,2013-01-08 09:11:00,
2013-01-07 23:22:00,63.0,62.0,30.06,North,11,0.0,-999.0,96,-99.99,,,-99.99,,2013-01-08 09:22:00,
2013-01-07 23:32:00,63.0,62.0,30.06,North,11,0.0,-999.0,96,-99.99,,,-99.99,,2013-01-08 09:32:00,
2013-01-07 23:42:00,63.0,62.0,30.06,North,11,0.0,-999.0,96,-99.99,,,-99.99,,2013-01-08 09:42:00,
2013-01-07 23:52:00,62.0,61.0,30.05,North,11,0.0,-999.0,96,-99.99,,,-99.99,,2013-01-08 09:52:00,